Weather History for St. George, AK

Change the Weather History Date:

Sunday, February 24, 2013

  Actual Average Record
Temperature  
Mean Temperature 6 °F -  
Max Temperature 10 °F 31 °F 39 °F (1997)
Min Temperature 3 °F 25 °F 3 °F (2013)
Degree Days  
Heating Degree Days 58    
Moisture  
Dew Point 2 °F    
Average Humidity 79    
Maximum Humidity 88    
Minimum Humidity 70    
Precipitation  
Precipitation 0.00 in - - ()
Sea Level Pressure  
Sea Level Pressure 29.71 in    
Wind  
Wind Speed 18 mph (NNW)    
Max Wind Speed 26 mph    
Max Gust Speed 38 mph    
Visibility 4 miles    
Events Snow    
Averages and records for this station are not official NWS values.
T = Trace of Precipitation, MM = Missing Value Source: NWS Daily Summary

Daily Weather History Graph

Daily Weather History Graph

Search for Another Location

Airport:

Trip Planner

Search our weather history database for the weather conditions in past years. The results will help you decide how hot, cold, wet, or windy it might be!

Date:

Astronomy

Feb. 24, 2013 Rise Set
Actual Time 9:22 AM AKST 7:42 PM AKST
Civil Twilight 8:44 AM AKST 8:20 PM AKST
Nautical Twilight 8:00 AM AKST 9:04 PM AKST
Astronomical Twilight 7:16 AM AKST 9:48 PM AKST
Moon 7:09 PM AKST (2/24) 8:29 AM AKST (2/24)
Length of Visible Light 11h 36m
Length of Day
10h 19m
Waxing Gibbous, 99% of the Moon is Illuminated
Feb 24
Waxing Gibbous
Feb 25
Full
Mar 4
Last Quarter
Mar 11
New
Mar 19
First Quarter

Hourly Weather History & Observations

Time (AKST) Temp. Windchill Dew Point Humidity Pressure Visibility Wind Dir Wind Speed Gust Speed Precip Events Conditions
12:11 AM 10.4 °F -8.6 °F 6.8 °F 85% 29.51 in 2.0 mi NNW 20.7 mph 26.5 mph 0.00 in   Overcast
12:33 AM 10.4 °F -8.2 °F 6.8 °F 85% 29.53 in 1.2 mi NW 19.6 mph - 0.00 in Snow Light Snow
12:48 AM 10.4 °F -7.2 °F 6.8 °F 85% 29.54 in 3.0 mi NW 17.3 mph 27.6 mph 0.00 in   Overcast
12:53 AM 9.0 °F -11.0 °F 6.1 °F 88% 29.51 in 3.0 mi NW 21.9 mph - 0.00 in   Overcast
1:22 AM 10.4 °F -9.1 °F 6.8 °F 85% 29.56 in 1.8 mi NNW 21.9 mph - 0.00 in Snow Light Snow
1:39 AM 8.6 °F -10.5 °F 5.0 °F 85% 29.57 in 2.5 mi NNW 19.6 mph - 0.00 in   Overcast
1:53 AM 9.0 °F -10.5 °F 6.1 °F 88% 29.54 in 3.0 mi NNW 20.7 mph 24.2 mph 0.00 in   Overcast
2:04 AM 10.4 °F -8.6 °F 6.8 °F 85% 29.57 in 2.0 mi NNW 20.7 mph 32.2 mph 0.00 in Snow Light Snow
2:11 AM 10.4 °F -7.2 °F 6.8 °F 85% 29.58 in 1.8 mi NW 17.3 mph - 0.00 in Snow Light Snow
2:16 AM 10.4 °F -7.2 °F 6.8 °F 85% 29.58 in 3.0 mi NW 17.3 mph - 0.00 in   Overcast
2:25 AM 10.4 °F -8.2 °F 6.8 °F 85% 29.59 in 1.8 mi NNW 19.6 mph - 0.00 in Snow Light Snow
2:41 AM 10.4 °F -7.7 °F 5.0 °F 79% 29.60 in 3.0 mi NW 18.4 mph - 0.00 in Snow Light Snow
3:53 AM 10.0 °F -5.9 °F 6.1 °F 84% 29.61 in 9.0 mi NW 13.8 mph - N/A   Overcast
4:30 AM 10.4 °F -8.2 °F 5.0 °F 79% 29.64 in 2.5 mi NNW 19.6 mph 25.3 mph 0.00 in   Haze
4:37 AM 10.4 °F -4.1 °F 5.0 °F 79% 29.65 in 3.0 mi NW 11.5 mph 25.3 mph 0.00 in   Haze
4:53 AM 10.0 °F -4.5 °F 5.0 °F 80% 29.62 in 9.0 mi NW 11.5 mph 21.9 mph 0.00 in   Overcast
5:53 AM 10.9 °F -5.9 °F 6.1 °F 81% 29.62 in 6.0 mi NNW 16.1 mph - 0.00 in   Haze
6:53 AM 10.0 °F -5.9 °F 5.0 °F 80% 29.65 in 2.5 mi NNW 13.8 mph 23.0 mph 0.00 in Snow Light Snow
7:03 AM 10.4 °F -5.4 °F 5.0 °F 79% 29.68 in 9.0 mi NW 13.8 mph - 0.00 in   Overcast
7:53 AM 10.0 °F -5.9 °F 3.9 °F 76% 29.66 in 8.0 mi NW 13.8 mph - 0.00 in Snow Light Snow
8:53 AM 9.0 °F -6.6 °F 3.9 °F 80% 29.68 in 3.0 mi NW 12.7 mph - 0.00 in   Haze
9:53 AM 9.0 °F -8.5 °F 3.0 °F 77% 29.70 in 3.0 mi NNW 16.1 mph - 0.00 in Snow Light Snow
10:53 AM 8.1 °F -5.3 °F 1.0 °F 73% 29.72 in 10.0 mi NNW 9.2 mph - 0.00 in   Overcast
11:35 AM 8.6 °F -8.9 °F 1.4 °F 73% 29.77 in 2.5 mi North 16.1 mph 24.2 mph 0.00 in Snow Light Snow
11:51 AM 8.6 °F -7.0 °F 3.2 °F 79% 29.77 in 1.5 mi NNW 12.7 mph 21.9 mph 0.00 in Snow Light Snow
11:53 AM 8.1 °F -7.7 °F 3.0 °F 80% 29.74 in 1.5 mi NNW 12.7 mph 21.9 mph 0.00 in Snow Light Snow
11:56 AM 8.6 °F -7.0 °F 3.2 °F 79% 29.77 in 4.0 mi North 12.7 mph - 0.00 in Snow Light Snow
12:53 PM 7.0 °F -5.7 °F 1.0 °F 77% 29.75 in 8.0 mi North 8.1 mph - 0.00 in   Overcast
1:53 PM 7.0 °F -7.5 °F 1.0 °F 77% 29.77 in 7.0 mi NNW 10.4 mph 19.6 mph 0.00 in   Overcast
2:50 PM 6.8 °F -11.3 °F 1.4 °F 79% 29.77 in 1.5 mi North 16.1 mph 20.7 mph 0.00 in Snow Light Snow
2:53 PM 7.0 °F -11.0 °F 1.9 °F 80% 29.74 in 1.2 mi North 16.1 mph 20.7 mph 0.00 in Snow Light Snow
3:18 PM 6.8 °F -10.0 °F 1.4 °F 79% 29.77 in 2.5 mi North 13.8 mph 21.9 mph 0.00 in   Haze
3:31 PM 6.8 °F -10.7 °F 1.4 °F 79% 29.77 in 4.0 mi North 15.0 mph 26.5 mph 0.00 in   Haze
3:53 PM 6.1 °F -8.7 °F 1.0 °F 80% 29.74 in 4.0 mi North 10.4 mph 18.4 mph 0.00 in   Haze
4:53 PM 5.0 °F -13.6 °F -0.9 °F 76% 29.75 in 7.0 mi North 16.1 mph 19.6 mph N/A   Mostly Cloudy
5:43 PM 5.0 °F -13.6 °F -0.4 °F 78% 29.78 in 2.0 mi North 16.1 mph 26.5 mph N/A   Haze
5:53 PM 5.0 °F -11.6 °F -0.9 °F 76% 29.75 in 1.8 mi North 12.7 mph 25.3 mph N/A   Haze
6:08 PM 5.0 °F -15.2 °F -0.4 °F 78% 29.79 in 0.8 mi North 19.6 mph 26.5 mph 0.00 in Snow Light Snow
6:27 PM 5.0 °F -15.7 °F -0.4 °F 78% 29.79 in 1.0 mi North 20.7 mph 28.8 mph 0.00 in   Haze
6:38 PM 5.0 °F -15.7 °F -2.2 °F 72% 29.79 in 2.0 mi NNE 20.7 mph 27.6 mph 0.00 in   Haze
6:50 PM 5.0 °F -15.7 °F -0.4 °F 78% 29.79 in 1.2 mi North 20.7 mph 31.1 mph 0.00 in   Haze
6:53 PM 5.0 °F -14.2 °F -0.9 °F 76% 29.77 in 0.8 mi North 17.3 mph 25.3 mph 0.00 in Snow Light Snow
7:15 PM 3.2 °F -18.1 °F -2.2 °F 78% 29.80 in 1.2 mi North 20.7 mph 27.6 mph 0.00 in   Haze
7:27 PM 3.2 °F -19.9 °F -2.2 °F 78% 29.79 in 2.5 mi NNE 25.3 mph 33.4 mph 0.00 in   Haze
7:35 PM 3.2 °F -18.1 °F -2.2 °F 78% 29.80 in 2.5 mi NNE 20.7 mph 33.4 mph 0.00 in   Haze
7:53 PM 3.9 °F -17.6 °F -2.9 °F 73% 29.78 in 6.0 mi NNE 21.9 mph 28.8 mph 0.00 in   Haze
8:01 PM 3.2 °F -17.1 °F -2.2 °F 78% 29.81 in 4.0 mi North 18.4 mph 33.4 mph N/A   Haze
8:53 PM 5.0 °F -16.7 °F -2.9 °F 70% 29.79 in 4.0 mi North 23.0 mph 34.5 mph N/A   Haze
9:05 PM 5.0 °F -17.1 °F -2.2 °F 72% 29.82 in 2.5 mi North 24.2 mph 34.5 mph N/A   Haze
9:15 PM 5.0 °F -16.2 °F -2.2 °F 72% 29.82 in 4.0 mi North 21.9 mph 33.4 mph N/A   Haze
9:28 PM 3.2 °F -20.3 °F -4.0 °F 72% 29.82 in 2.0 mi North 26.5 mph 33.4 mph N/A   Haze
9:44 PM 3.2 °F -19.0 °F -4.0 °F 72% 29.82 in 4.0 mi North 23.0 mph 38.0 mph N/A   Haze
9:53 PM 3.9 °F -18.5 °F -2.9 °F 73% 29.79 in 2.5 mi North 24.2 mph 35.7 mph N/A   Haze
10:05 PM 5.0 °F -16.2 °F -2.2 °F 72% 29.82 in 3.0 mi North 21.9 mph 35.7 mph N/A   Haze
10:53 PM 3.9 °F -16.1 °F -2.0 °F 76% 29.80 in 5.0 mi North 18.4 mph 33.4 mph N/A   Haze
11:08 PM 3.2 °F -18.6 °F -2.2 °F 78% 29.83 in 6.0 mi North 21.9 mph 35.7 mph N/A   Haze
11:53 PM 3.9 °F -17.6 °F -2.0 °F 76% 29.81 in 6.0 mi NNE 21.9 mph 36.8 mph N/A   Haze